Shelbyville, IN

7:26 AM EST on November 21, 2019 (GMT -0500)
Shelbyville Municipal

Weather History for KGEZ - September, 2019

Change the Weather History Date:

Wednesday, September 4, 2019

  Actual Average Record
Temperature  
Mean Temperature 72 °F 70 °F  
Max Temperature 81 °F 82 °F 95 °F (2007)
Min Temperature 62 °F 58 °F 49 °F (2010)
Degree Days  
Heating Degree Days 0 1  
Month to date heating degree days 0 1  
Since 1 July heating degree days 0 7  
Cooling Degree Days 7 5  
Month to date cooling degree days 30 22  
Year to date cooling degree days 1091 828  
Growing Degree Days 22 (Base 50)    
Moisture  
Dew Point 63 °F    
Average Humidity 71    
Maximum Humidity 93    
Minimum Humidity 48    
Precipitation  
Precipitation 0.00 in 0.09 in 1.89 in (2000)
Month to date precipitation 0.52 0.39  
Year to date precipitation 31.98 30.67  
Sea Level Pressure  
Sea Level Pressure 30.01 in    
Wind  
Wind Speed 5 mph (NW)    
Max Wind Speed 12 mph    
Max Gust Speed 16 mph    
Visibility 10 miles    
Events      
T = Trace of Precipitation, MM = Missing Value Source: NWS Daily Summary

Daily Weather History Graph

Daily Weather History Graph

Search for Another Location

Airport or City:

Astronomy

Sep. 04, 2019 Rise Set
Actual Time 7:14 AM EDT 8:09 PM EDT
Civil Twilight 6:46 AM EDT 8:37 PM EDT
Nautical Twilight 6:13 AM EDT 9:09 PM EDT
Astronomical Twilight 5:40 AM EDT 9:43 PM EDT
Moon 1:13 PM EDT (9/4) 11:45 PM EDT (9/4)
Length of Visible Light 13h 50m
Length of Day
12h 55m
Waxing Crescent, 34% of the Moon is Illuminated
Sep 4
Waxing Crescent
Sep 5
First Quarter
Sep 14
Full
Sep 21
Last Quarter
Sep 28
New

Hourly Weather History & Observations

Time (EDT) Temp. Heat Index Dew Point Humidity Pressure Visibility Wind Dir Wind Speed Gust Speed Precip Events Conditions
12:53 AM 72.0 °F - 66.9 °F 84% 29.93 in 10.0 mi SSW 5.8 mph - N/A   Clear
1:53 AM 71.1 °F - 66.9 °F 87% 29.93 in 10.0 mi SSW 6.9 mph - N/A   Clear
2:53 AM 71.1 °F - 66.9 °F 87% 29.93 in 10.0 mi SSW 5.8 mph - N/A   Mostly Cloudy
3:19 AM 71.1 °F - 68.0 °F 90% 29.95 in 10.0 mi SSW 4.6 mph - N/A   Mostly Cloudy
3:50 AM 71.6 °F - 68.0 °F 88% 29.95 in 10.0 mi WSW 5.8 mph - N/A   Scattered Clouds
3:53 AM 72.0 °F - 68.0 °F 87% 29.93 in 10.0 mi WSW 4.6 mph - N/A   Scattered Clouds
4:53 AM 72.0 °F - 69.1 °F 91% 29.94 in 10.0 mi West 5.8 mph - N/A   Partly Cloudy
5:53 AM 71.1 °F - 68.0 °F 90% 29.95 in 7.0 mi West 4.6 mph - N/A   Clear
6:53 AM 70.0 °F - 66.9 °F 90% 29.98 in 5.0 mi NW 4.6 mph - N/A   Clear
7:53 AM 69.1 °F - 64.0 °F 84% 30.01 in 10.0 mi NW 3.5 mph - N/A   Clear
8:53 AM 72.0 °F - 64.9 °F 78% 30.02 in 10.0 mi NW 3.5 mph - N/A   Partly Cloudy
9:53 AM 75.0 °F - 61.0 °F 62% 30.03 in 10.0 mi NW 6.9 mph - N/A   Clear
10:53 AM 75.9 °F - 60.1 °F 58% 30.04 in 10.0 mi Variable 4.6 mph - N/A   Clear
11:53 AM 77.0 °F - 57.9 °F 52% 30.05 in 10.0 mi West 5.8 mph - N/A   Clear
12:53 PM 78.1 °F - 57.9 °F 50% 30.05 in 10.0 mi NNW 8.1 mph - N/A   Clear
1:53 PM 80.1 °F 80.7 °F 59.0 °F 48% 30.05 in 10.0 mi Calm Calm - N/A   Clear
2:53 PM 80.1 °F 80.7 °F 59.0 °F 48% 30.05 in 10.0 mi WNW 5.8 mph - N/A   Clear
3:53 PM 81.0 °F 81.7 °F 61.0 °F 50% 30.04 in 10.0 mi North 8.1 mph - N/A   Scattered Clouds
5:53 PM 79.0 °F - 61.0 °F 54% 30.04 in 10.0 mi North 6.9 mph - N/A   Clear
6:53 PM 77.0 °F - 59.0 °F 54% 30.05 in 10.0 mi North 6.9 mph - N/A   Clear
7:53 PM 72.0 °F - 60.1 °F 66% 30.06 in 10.0 mi North 4.6 mph - N/A   Clear
8:53 PM 68.0 °F - 60.1 °F 76% 30.07 in 10.0 mi North 3.5 mph - N/A   Clear
9:53 PM 64.9 °F - 59.0 °F 81% 30.08 in 10.0 mi North 5.8 mph - N/A   Clear
10:53 PM 63.0 °F - 57.9 °F 84% 30.09 in 10.0 mi North 4.6 mph - N/A   Clear
11:53 PM 63.0 °F - 59.0 °F 87% 30.09 in 10.0 mi North 5.8 mph - N/A   Clear